Overview Statistics Trail Chart Weather Telemetry Raw packets
 

This is the latest recevied weather packets stored in our database for station/object HB9TJR-3. If no packets are shown the sender has not sent any weather packets the latest 10 day(s).

<< 35 36 37 38 39 40 41 >>
Time Temp. Humidity Pressure Rain* Wind** Luminosity Snow
1787849251 21.11° C 70% 865.9 hPa 0 mm - - -
1787848291 21.67° C 71% 866 hPa 0 mm - - -
1787847334 21.67° C 71% 866.3 hPa 0 mm - - -
1787847331 21.67° C 71% 866.3 hPa 0 mm - - -
1787846374 21.67° C 71% 866.4 hPa 0 mm - - -
1787846371 21.67° C 71% 866.4 hPa 0 mm - - -
1787845964 21.67° C 71% 866.8 hPa 0 mm - - -
1787845414 21.67° C 71% 866.8 hPa 0 mm - - -
1787845411 21.67° C 71% 866.8 hPa 0 mm - - -
1787845131 21.67° C 72% 866.5 hPa 0 mm - - -
1787844451 21.67° C 72% 866.5 hPa 0 mm - - -
1787843495 21.67° C 70% 866.7 hPa 0 mm - - -
1787843491 21.67° C 70% 866.7 hPa 0 mm - - -
1787842536 21.67° C 71% 866.7 hPa 0 mm - - -
1787842531 21.67° C 71% 866.7 hPa 0 mm - - -
1787841575 22.22° C 70% 866.8 hPa 0 mm - - -
1787841571 22.22° C 70% 866.8 hPa 0 mm - - -
1787840614 22.22° C 70% 866.9 hPa 0 mm - - -
1787840611 22.22° C 70% 866.9 hPa 0 mm - - -
1787839651 22.22° C 70% 866.9 hPa 0 mm - - -
1787838691 22.22° C 69% 867.1 hPa 0 mm - - -
1787837734 22.22° C 72% 867.2 hPa 0 mm - - -
1787837731 22.22° C 72% 867.2 hPa 0 mm - - -
1787836776 22.22° C 69% 867.2 hPa 0 mm - - -
1787836771 22.22° C 69% 867.2 hPa 0 mm - - -

* Rain latest hour (hover to see other rain measurements)
** Current wind speed in m/s (hover to see current wind gust speed)